Location: Czekanka
(50.4925°N, 19.2643°E)
Time: 00:36:15
(UTC+00:00)

ADEOS II - Pass Details

Date: 21 September 2024
Orbit: 795 x 798 km, 98.7° (Epoch: 09 October)

Event Time Altitude Azimuth Distance (km) Brightness Sun altitude
Rises 02:09:18 0° 10° (N) 3,312 5.9 -21.9°
Reaches altitude 10° 02:11:45 10° 3° (N) 2,377 4.9 -21.5°
Maximum altitude 02:16:36 40° 295° (WNW) 1,164 2.6 -20.9°
Enters shadow 02:17:21 38° 275° (W) 1,206 2.6 -20.8°
